Albert Lea, MN

5:42 AM CST on February 28, 2017 (GMT -0600)
Albert Lea Municipal

Weather History for KAEL - October, 2012

Change the Weather History Date:

Sunday, October 21, 2012

  Actual Average Record
Temperature  
Mean Temperature 56 °F -  
Max Temperature 69 °F 54 °F 73 °F (1999)
Min Temperature 42 °F 36 °F 26 °F (1997)
Degree Days  
Heating Degree Days 10    
Growing Degree Days 6 (Base 50)    
Moisture  
Dew Point 47 °F    
Average Humidity 78    
Maximum Humidity 93    
Minimum Humidity 53    
Precipitation  
Precipitation 0.00 in - - ()
Sea Level Pressure  
Sea Level Pressure 29.81 in    
Wind  
Wind Speed 11 mph (SSE)    
Max Wind Speed 21 mph    
Max Gust Speed 28 mph    
Visibility 10 miles    
Events      
Averages and records for this station are not official NWS values.
T = Trace of Precipitation, MM = Missing Value Source: NWS Daily Summary

Daily Weather History Graph

Daily Weather History Graph

Search for Another Location

Airport or City:

Trip Planner

Search our weather history database for the weather conditions in past years. The results will help you decide how hot, cold, wet, or windy it might be!

Date:

Astronomy

Oct. 21, 2012 Rise Set
Actual Time 7:35 AM CDT 6:19 PM CDT
Civil Twilight 7:06 AM CDT 6:48 PM CDT
Nautical Twilight 6:33 AM CDT 7:22 PM CDT
Astronomical Twilight 5:59 AM CDT 7:55 PM CDT
Moon 2:00 PM CDT (10/21) No Moon Set
Length of Visible Light 11h 42m
Length of Day
10h 43m
Waxing Crescent, 45% of the Moon is Illuminated
Oct 21
Waxing Crescent
Oct 21
First Quarter
Oct 29
Full
Nov 6
Last Quarter
Nov 13
New

Hourly Weather History & Observations

Time (CDT) Temp. Windchill Dew Point Humidity Pressure Visibility Wind Dir Wind Speed Gust Speed Precip Events Conditions
12:12 AM 44.6 °F 40.2 °F 42.8 °F 93% 29.82 in 10.0 mi SSE 8.1 mph - N/A   Clear
12:32 AM 44.6 °F 39.7 °F 42.8 °F 93% 29.83 in 10.0 mi SSE 9.2 mph - N/A   Clear
12:52 AM 44.6 °F 39.7 °F 42.8 °F 93% 29.83 in 10.0 mi South 9.2 mph - N/A   Clear
1:13 AM 44.6 °F 39.2 °F 42.8 °F 93% 29.83 in 10.0 mi SSE 10.4 mph - N/A   Clear
1:32 AM 44.6 °F 38.8 °F 41.0 °F 87% 29.83 in 10.0 mi SSE 11.5 mph - N/A   Clear
1:52 AM 44.6 °F 39.2 °F 42.8 °F 93% 29.82 in 10.0 mi SSE 10.4 mph - N/A   Clear
2:13 AM 44.6 °F 38.8 °F 42.8 °F 93% 29.82 in 10.0 mi South 11.5 mph - N/A   Clear
2:32 AM 44.6 °F 39.2 °F 42.8 °F 93% 29.82 in 10.0 mi SSE 10.4 mph - N/A   Clear
2:52 AM 44.6 °F 39.2 °F 42.8 °F 93% 29.82 in 10.0 mi SSE 10.4 mph - N/A   Clear
3:13 AM 44.6 °F 39.2 °F 42.8 °F 93% 29.82 in 10.0 mi SSE 10.4 mph - N/A   Clear
3:32 AM 44.6 °F 38.4 °F 41.0 °F 87% 29.81 in 10.0 mi SSE 12.7 mph - N/A   Clear
3:52 AM 42.8 °F 36.6 °F 41.0 °F 93% 29.81 in 10.0 mi SSE 11.5 mph - N/A   Clear
4:13 AM 42.8 °F 37.0 °F 41.0 °F 93% 29.81 in 10.0 mi SSE 10.4 mph - N/A   Clear
4:32 AM 42.8 °F 37.0 °F 41.0 °F 93% 29.82 in 10.0 mi SSE 10.4 mph - N/A   Clear
4:52 AM 42.8 °F 36.2 °F 41.0 °F 93% 29.82 in 10.0 mi SSE 12.7 mph - N/A   Clear
5:13 AM 42.8 °F 36.6 °F 41.0 °F 93% 29.82 in 10.0 mi SSE 11.5 mph - N/A   Clear
5:32 AM 42.8 °F 36.2 °F 41.0 °F 93% 29.82 in 7.0 mi SSE 12.7 mph 17.3 mph N/A   Clear
5:52 AM 42.8 °F 36.6 °F 41.0 °F 93% 29.82 in 7.0 mi SSE 11.5 mph - N/A   Clear
6:13 AM 42.8 °F 36.6 °F 41.0 °F 93% 29.82 in 7.0 mi SSE 11.5 mph - N/A   Clear
6:32 AM 42.8 °F 36.2 °F 41.0 °F 93% 29.82 in 7.0 mi SSE 12.7 mph - N/A   Clear
6:52 AM 42.8 °F 36.6 °F 41.0 °F 93% 29.82 in 7.0 mi SSE 11.5 mph - N/A   Clear
7:13 AM 42.8 °F 36.2 °F 41.0 °F 93% 29.82 in 7.0 mi SSE 12.7 mph 17.3 mph N/A   Clear
7:32 AM 42.8 °F 35.1 °F 41.0 °F 93% 29.82 in 7.0 mi SSE 16.1 mph - N/A   Clear
7:52 AM 42.8 °F 35.8 °F 41.0 °F 93% 29.82 in 7.0 mi SSE 13.8 mph 18.4 mph N/A   Clear
8:13 AM 42.8 °F 37.0 °F 41.0 °F 93% 29.81 in 7.0 mi SE 10.4 mph - N/A   Clear
8:32 AM 44.6 °F 38.1 °F 41.0 °F 87% 29.80 in 10.0 mi SSE 13.8 mph 19.6 mph N/A   Clear
8:52 AM 46.4 °F 39.8 °F 42.8 °F 87% 29.81 in 10.0 mi SSE 16.1 mph 24.2 mph N/A   Clear
9:13 AM 46.4 °F 39.8 °F 42.8 °F 87% 29.81 in 10.0 mi SSE 16.1 mph 23.0 mph N/A   Clear
9:32 AM 48.2 °F - 42.8 °F 82% 29.80 in 10.0 mi SSE 16.1 mph 23.0 mph N/A   Clear
9:52 AM 50.0 °F - 44.6 °F 82% 29.80 in 10.0 mi SSE 15.0 mph 25.3 mph N/A   Clear
10:12 AM 51.8 °F - 44.6 °F 76% 29.79 in 10.0 mi SSE 17.3 mph 24.2 mph N/A   Clear
10:32 AM 53.6 °F - 44.6 °F 72% 29.80 in 10.0 mi SSE 18.4 mph 23.0 mph N/A   Clear
10:52 AM 53.6 °F - 46.4 °F 77% 29.80 in 10.0 mi SSE 16.1 mph 21.9 mph N/A   Clear
11:12 AM 55.4 °F - 46.4 °F 72% 29.79 in 10.0 mi SSE 16.1 mph 26.5 mph N/A   Clear
11:32 AM 55.4 °F - 46.4 °F 72% 29.78 in 10.0 mi SSE 19.6 mph 26.5 mph N/A   Clear
11:52 AM 55.4 °F - 46.4 °F 72% 29.78 in 10.0 mi SSE 17.3 mph 24.2 mph N/A   Clear
12:12 PM 59.0 °F - 48.2 °F 67% 29.78 in 10.0 mi SSE 17.3 mph - N/A   Clear
12:32 PM 60.8 °F - 48.2 °F 63% 29.77 in 10.0 mi South 20.7 mph 27.6 mph N/A   Clear
12:52 PM 62.6 °F - 50.0 °F 63% 29.78 in 10.0 mi SSE 16.1 mph 25.3 mph N/A   Clear
1:12 PM 62.6 °F - 50.0 °F 63% 29.78 in 10.0 mi South 16.1 mph 20.7 mph N/A   Clear
1:32 PM 64.4 °F - 51.8 °F 64% 29.78 in 10.0 mi South 17.3 mph 24.2 mph N/A   Clear
1:52 PM 66.2 °F - 51.8 °F 60% 29.77 in 10.0 mi SSE 19.6 mph 23.0 mph N/A   Clear
2:12 PM 66.2 °F - 51.8 °F 60% 29.77 in 10.0 mi South 16.1 mph 21.9 mph N/A   Clear
2:32 PM 66.2 °F - 51.8 °F 60% 29.76 in 10.0 mi South 16.1 mph 24.2 mph N/A   Clear
2:52 PM 68.0 °F - 51.8 °F 56% 29.76 in 10.0 mi SSE 20.7 mph 26.5 mph N/A   Clear
3:12 PM 68.0 °F - 51.8 °F 56% 29.76 in 10.0 mi South 16.1 mph 24.2 mph N/A   Clear
3:32 PM 69.8 °F - 51.8 °F 53% 29.77 in 10.0 mi South 15.0 mph 20.7 mph N/A   Clear
3:52 PM 69.8 °F - 53.6 °F 56% 29.78 in 10.0 mi South 11.5 mph 21.9 mph N/A   Clear
4:12 PM 69.8 °F - 53.6 °F 56% 29.77 in 10.0 mi South 15.0 mph 21.9 mph N/A   Clear
4:32 PM 69.8 °F - 53.6 °F 56% 29.78 in 10.0 mi South 13.8 mph 18.4 mph N/A   Clear
4:52 PM 69.8 °F - 53.6 °F 56% 29.78 in 10.0 mi South 6.9 mph - N/A   Clear
5:12 PM 69.8 °F - 53.6 °F 56% 29.79 in 10.0 mi South 8.1 mph - N/A   Clear
5:32 PM 69.8 °F - 53.6 °F 56% 29.79 in 10.0 mi South 4.6 mph - N/A   Clear
5:52 PM 68.0 °F - 53.6 °F 60% 29.80 in 10.0 mi South 5.8 mph - N/A   Clear
6:12 PM 66.2 °F - 53.6 °F 64% 29.81 in 10.0 mi South 3.5 mph - N/A   Clear
6:32 PM 64.4 °F - 53.6 °F 68% 29.82 in 10.0 mi South 4.6 mph - N/A   Clear
6:52 PM 62.6 °F - 53.6 °F 72% 29.82 in 10.0 mi SSE 3.5 mph - N/A   Clear
7:12 PM 62.6 °F - 53.6 °F 72% 29.82 in 10.0 mi SSE 4.6 mph - N/A   Clear
7:33 PM 60.8 °F - 53.6 °F 77% 29.83 in 10.0 mi SSE 5.8 mph - N/A   Clear
7:52 PM 60.8 °F - 53.6 °F 77% 29.83 in 10.0 mi SSE 6.9 mph - N/A   Clear
8:12 PM 59.0 °F - 51.8 °F 77% 29.84 in 10.0 mi SSE 8.1 mph - N/A   Clear
8:32 PM 60.8 °F - 51.8 °F 72% 29.84 in 10.0 mi SSE 4.6 mph - N/A   Clear
8:52 PM 59.0 °F - 51.8 °F 77% 29.85 in 10.0 mi SSE 4.6 mph - N/A   Clear
9:12 PM 59.0 °F - 51.8 °F 77% 29.86 in 10.0 mi West 4.6 mph - N/A   Clear
9:33 PM 57.2 °F - 51.8 °F 82% 29.87 in 10.0 mi Calm Calm - N/A   Clear
9:52 PM 59.0 °F - 51.8 °F 77% 29.87 in 10.0 mi WSW 3.5 mph - N/A   Clear
10:12 PM 59.0 °F - 51.8 °F 77% 29.88 in 10.0 mi Calm Calm - N/A   Clear
10:32 PM 55.4 °F - 48.2 °F 77% 29.88 in 10.0 mi NNW 4.6 mph - N/A   Scattered Clouds
10:52 PM 53.6 °F - 48.2 °F 82% 29.88 in 10.0 mi North 8.1 mph - N/A   Scattered Clouds
11:12 PM 53.6 °F - 48.2 °F 82% 29.88 in 10.0 mi North 4.6 mph - N/A   Scattered Clouds
11:33 PM 51.8 °F - 48.2 °F 88% 29.88 in 10.0 mi North 5.8 mph - N/A   Scattered Clouds
11:52 PM 51.8 °F - 48.2 °F 88% 29.88 in 10.0 mi North 4.6 mph - N/A   Scattered Clouds